Location: Wiesbaden
(50.0830°N, 8.2500°E)
Time: 05:52:23
(UTC+01:00)

ISS - Pass Details

Date: 07 December 2019
Orbit: 411 x 421 km, 51.6° (Epoch: 15 December)

Event Time Altitude Azimuth Distance (km) Brightness Sun altitude
Rises 19:11:59 0° 285° (WNW) 2,362 1.2 -25.6°
Reaches altitude 10° 19:14:23 10° 269° (W) 1,497 0.1 -26.0°
Enters shadow 19:16:40 21° 226° (SW) 1,006 -1.4 -26.4°
